Location: Ammerl�gen
(47.2167°N, 9.6000°E)
Time: 21:18:04
(UTC+00:00)

XW-2B - Visible Passes

Search period start: 05 December 2021 00:00
Search period end: 15 December 2021 00:00
Orbit: 504 x 522 km, 97.5° (Epoch: 05 December)

Date Brightness Start Highest point End Pass type
(mag) Time Alt. Az. Time Alt. Az. Time Alt. Az.
05 Dec ? 04:20:12 10° ENE 04:22:05 13° E 04:23:58 10° ESE visible
05 Dec ? 05:52:41 10° N 05:56:25 54° WNW 06:00:07 10° SSW visible
05 Dec ? 16:35:07 10° S 16:38:51 76° WSW 16:42:38 10° NNW visible
06 Dec ? 05:37:01 10° N 05:40:50 82° WNW 05:44:38 10° SSW visible
06 Dec ? 16:19:32 10° SSE 16:23:15 70° ENE 16:27:01 10° N visible
07 Dec ? 05:21:25 10° NNE 05:25:14 65° ESE 05:29:00 10° S visible
07 Dec ? 16:04:05 10° SE 16:07:40 46° ENE 16:11:18 10° N visible
07 Dec ? 17:39:43 10° SW 17:41:56 15° W 17:44:10 10° NW visible
08 Dec ? 05:05:55 10° NNE 05:09:34 42° E 05:13:11 10° S visible
08 Dec ? 17:23:13 10° SW 17:26:11 22° W 17:29:10 10° NW visible
09 Dec ? 04:50:32 10° NE 04:53:53 28° E 04:57:11 10° SSE visible
09 Dec ? 17:07:04 10° SSW 17:10:27 32° W 17:13:53 10° NNW visible
10 Dec ? 04:35:19 10° NE 04:38:08 19° E 04:40:56 10° SE visible
10 Dec ? 06:08:44 10° N 06:12:15 36° WNW 06:15:44 10° SW visible
10 Dec ? 16:51:07 10° S 16:54:45 48° W 16:58:27 10° NNW visible
11 Dec ? 04:20:26 10° ENE 04:22:21 13° E 04:24:15 10° ESE visible
11 Dec ? 05:52:57 10° N 05:56:41 53° WNW 06:00:23 10° SSW visible
11 Dec ? 16:35:21 10° S 16:39:06 76° WSW 16:42:54 10° NNW visible
12 Dec ? 05:37:15 10° N 05:41:05 82° WNW 05:44:52 10° SSW visible
12 Dec ? 16:19:43 10° SSE 16:23:27 71° ENE 16:27:16 10° N visible
12 Dec ? 17:57:48 10° W 17:57:56 10° W 17:58:06 10° W visible
13 Dec ? 05:21:38 10° NNE 05:25:26 65° ESE 05:29:12 10° S visible
13 Dec ? 16:04:15 10° SE 16:07:51 46° ENE 16:11:31 10° N visible
13 Dec ? 17:39:53 10° SW 17:42:07 15° W 17:44:23 10° NW visible
14 Dec ? 05:06:06 10° NNE 05:09:45 42° E 05:13:21 10° S visible
14 Dec ? 17:23:22 10° SW 17:26:20 22° W 17:29:21 10° NW visible
